[[{"header":{"parameterUnit":"m.s-1","parameterCategory":1,"la1":30.2991,"la2":30.254,"lo1":-89.0895,"lo2":-89.0444,"dy":0.0017,"dx":0.0017,"nx":28,"ny":28,"refTime":"2025-01-15T03:00:00:Z","depth":0,"parameterNumber":2,"parameterNumberName":"U-component_of_WINDS"},"data":[0,0,0,0,0,0,0,0,0,0,0,0,0,0,0,0,0,0,0,0,0,0,0,0,0,0,0,0,0,0,0,0,0,0,0,0,0,0,0,0,0,0,0,0,0,0,0,0,0,0,0,0,0,0,0,0,0,0,-4.191,-4.191,0,-4.1971,-4.1971,-4.1972,-4.1854,-4.185,-4.1846,-4.1842,-4.1908,-4.1913,-4.1919,0,0,0,0,0,0,0,0,0,0,0,0,0,-4.1695,-4.1699,-4.191,-4.191,-4.1911,-4.197,-4.1971,-4.1972,-4.1854,-4.1849,-4.1845,-4.184,-4.1906,-4.1913,-4.1919,0,0,0,0,0,0,0,0,0,0,0,0,0,-4.1775,-4.1701,-4.191,-4.1859,-4.1856,-4.197,-4.1971,-4.1972,-4.1855,-4.1849,-4.1843,-4.1838,-4.1904,-4.1912,-4.192,-4.2088,0,0,-4.1945,-4.1948,0,0,0,0,0,0,0,0,-4.1771,-4.1783,-4.1866,-4.1863,-4.1859,-4.1898,-4.1919,-4.2011,-4.1857,-4.1856,-4.1842,-4.1835,-4.191,-4.1917,-4.1942,-4.2091,-4.2094,-4.1946,-4.1951,-4.1954,-4.1956,0,0,0,0,0,0,0,-4.1765,-4.178,-4.1934,-4.1867,-4.1863,-4.1835,-4.184,-4.1936,-4.1915,-4.1855,-4.1847,-4.1855,-4.1907,-4.1934,-4.1942,-4.2095,-4.1945,-4.1953,-4.1958,-4.1961,-4.2385,-4.2391,0,0,0,0,0,0,-4.1766,-4.1776,-4.1932,-4.1936,-4.1799,-4.1844,-4.1849,-4.1892,-4.1914,-4.1911,-4.186,-4.185,-4.1923,-4.1933,-4.1944,-4.2143,-4.1954,-4.1962,-4.1966,-4.2379,-4.2386,-4.2393,0,0,0,0,0,0,-4.1761,-4.1781,-4.1929,-4.1854,-4.187,-4.1853,-4.1902,-4.1896,-4.1923,-4.1917,-4.1913,-4.1892,-4.1919,-4.1933,-4.2053,-4.2143,-4.1965,-4.1973,-4.2371,-4.2381,-4.239,-4.2541,0,0,0,0,0,0,-4.1756,-4.178,-4.1843,-4.1856,-4.1875,-4.2037,-4.1908,-4.1901,-4.1937,-4.1924,-4.1946,-4.1944,-4.1915,-4.2041,-4.2061,-4.2151,-4.1979,-4.2363,-4.2375,-4.2387,-4.2528,-4.2555,-4.2578,0,0,0,0,0,-4.1749,-4.1884,-4.1847,-4.1866,-4.1953,-4.2042,-4.2053,-4.2016,-4.1945,-4.2008,-4.2005,-4.1943,-4.213,-4.2055,-4.2076,-4.217,-4.2357,-4.2372,-4.2386,-4.2517,-4.2549,-4.2577,0,0,0,0,0,0,-4.1883,-4.1885,-4.1843,-4.1987,-4.2015,-4.2022,-4.2101,-4.2052,-4.2102,-4.2088,-4.2041,-4.2047,-4.2177,-4.2184,-4.2101,-4.2333,-4.2231,-4.2251,-4.2324,-4.2355,-4.2379,-4.2376,-4.1986,0,0,0,0,0,-4.1929,-4.2001,-4.1998,-4.2125,-4.2141,-4.2119,-4.2156,-4.2125,-4.2153,-4.2165,-4.217,-4.2201,-4.2266,-4.231,-4.237,-4.2527,-4.2532,-4.2603,-4.2627,-4.2648,-4.2666,-4.2751,-4.2783,-4.244,-4.244,-4.244,0,0,-4.2026,-4.2035,-4.2084,-4.2152,-4.217,-4.2247,-4.213,-4.2215,-4.2272,-4.2178,-4.2292,-4.2297,-4.2328,-4.2468,-4.253,-4.2479,-4.2761,-4.2666,-4.2682,-4.269,-4.2769,-4.2802,-4.2831,-4.245,-4.2448,-4.2447,0,0,-4.2242,-4.2255,-4.2362,-4.2383,-4.2411,-4.2396,-4.2421,-4.2436,-4.2435,-4.2548,-4.248,-4.2546,-4.266,-4.2685,-4.2713,-4.2936,-4.2883,-4.2957,-4.3088,-4.3171,-4.3198,-4.3222,-4.3304,-4.3334,-4.2974,-4.2975,-4.2975,0,-4.2359,-4.2469,-4.2424,-4.2514,-4.2547,-4.2464,-4.2573,-4.2595,-4.2643,-4.2668,-4.261,-4.275,-4.2765,-4.291,-4.2965,-4.2989,-4.3019,-4.2956,-4.3198,-4.3221,-4.3243,-4.332,-4.3351,-4.2984,-4.2983,-4.2982,-4.2981,0,-4.2613,-4.2691,-4.2774,-4.2821,-4.2862,-4.2962,-4.2933,-4.2981,-4.2945,-4.2936,-4.3053,-4.3067,-4.3129,-4.3161,-4.3128,-4.3302,-4.3269,-4.3205,-4.3102,-4.3285,-4.3357,-4.3387,-4.2997,-4.2994,-4.2991,-4.2989,0,0,-4.2918,-4.2937,-4.2969,-4.2989,-4.3014,-4.3074,-4.3169,-4.3228,-4.3271,-4.3306,-4.3386,-4.3483,-4.3424,-4.3455,-4.3424,-4.3497,-4.3676,-4.3424,-4.3424,-4.3472,-4.3871,-4.3921,-4.3956,-4.3639,-4.3644,-4.3648,-4.3869,0,-4.3133,-4.3297,-4.3258,-4.3421,-4.3493,-4.3414,-4.3498,-4.3523,-4.3517,-4.3578,-4.357,-4.3641,-4.3556,-4.3575,-4.3643,-4.364,-4.3756,-4.3623,-4.3715,-4.3719,-4.3713,-4.3993,-4.4046,-4.4254,-4.3896,-4.3901,-4.3904,0,-4.3407,-4.3451,-4.3621,-4.3634,-4.3663,-4.3738,-4.3789,-4.3848,-4.3875,-4.3865,-4.39,-4.3854,-4.395,-4.3844,-4.3976,-4.3887,-4.3922,-4.3926,-4.3933,-4.3942,-4.3825,-4.4013,-4.4318,-4.4351,-4.3948,-4.3945,-4.3941,0,-4.3615,-4.3717,-4.3831,-4.3851,-4.3869,-4.3924,-4.3934,-4.3955,-4.3993,-4.4037,-4.4062,-4.4117,-4.4149,-4.4193,-4.4164,-4.4089,-4.4303,-4.4193,-4.4299,-4.43,-4.435,-4.4348,-4.4668,-4.4368,-4.4368,-4.4367,-4.4367,0,-4.3861,-4.3969,-4.3925,-4.3997,-4.4115,-4.4069,-4.4188,-4.4189,-4.4208,-4.4278,-4.4213,-4.4281,-4.4237,-4.4302,-4.4279,-4.4394,-4.4408,-4.4404,-4.4397,-4.4411,-4.4412,-4.4436,-4.4422,-4.4375,-4.4374,-4.4372,-4.4371,0,-4.4115,-4.409,-4.421,-4.4216,-4.422,-4.4308,-4.4313,-4.438,-4.4367,-4.4458,-4.4476,-4.4458,-4.4531,-4.4505,-4.4583,-4.4568,-4.4714,-4.4687,-4.4705,-4.47,-4.4807,-4.4799,-4.5157,-4.5202,-4.4871,-4.4874,-4.4876,0,-4.4275,-4.4356,-4.437,-4.4412,-4.4426,-4.4495,-4.4533,-4.4491,-4.4533,-4.4569,-4.4632,-4.4699,-4.475,-4.487,-4.4865,-4.4924,-4.49,-4.5021,-4.4909,-4.4921,-4.4905,-4.4902,-4.491,-4.5045,-4.5049,-4.5052,-4.5054,0,-4.4563,-4.4546,-4.4603,-4.4655,-4.4702,-4.4742,-4.4776,-4.4814,-4.4774,-4.4825,-4.4898,-4.4938,-4.5017,-4.5085,-4.5138,-4.5149,-4.5097,-4.5089,-4.5117,-4.5134,-4.5142,-4.5142,-4.4769,-4.5082,-4.5079,-4.5077,-4.5076,-4.5075,-4.4776,-4.4845,-4.4865,-4.4931,-4.4951,-4.4984,-4.5047,-4.5042,-4.5102,-4.5162,-4.5133,-4.5218,-4.5243,-4.5309,-4.5328,-4.5394,-4.5347,-4.5387,-4.5398,-4.5409,-4.5424,-4.5129,-4.5403,-4.5402,-4.5402,-4.5401,-4.54,0,-4.5063,-4.5071,-4.5132,-4.5181,-4.5232,-4.5175,-4.521,-4.5257,-4.5333,-4.5359,-4.541,-4.5495,-4.556,-4.5559,-4.5619,-4.5673,-4.565,-4.569,-4.5688,-4.5691,-4.5462,-4.5432,-4.5708,-4.5708,-4.5708,-4.5708,-4.5707,-4.5707,-4.5218,-4.5331,-4.5317,-4.5439,-4.5447,-4.5529,-4.5554,-4.5584,-4.5605,-4.5702,-4.5755,-4.5753,-4.5769,-4.583,-4.5888,-4.5886,-4.5912,-4.5962,-4.5952,-4.5738,-4.5707,-4.5678,-4.5651,-4.5968,-4.5968,-4.6176,-4.6178,-4.618]},{"header":{"parameterUnit":"m.s-1","parameterCategory":1,"la1":30.2991,"la2":30.254,"lo1":-89.0895,"lo2":-89.0444,"dy":0.0017,"dx":0.0017,"nx":28,"ny":28,"refTime":"2025-01-15T03:00:00:Z","depth":0,"parameterNumber":3,"parameterNumberName":"V-component_of_WINDS"},"data":[0,0,0,0,0,0,0,0,0,0,0,0,0,0,0,0,0,0,0,0,0,0,0,0,0,0,0,0,0,0,0,0,0,0,0,0,0,0,0,0,0,0,0,0,0,0,0,0,0,0,0,0,0,0,0,0,0,0,-2.3658,-2.3658,0,-2.365,-2.365,-2.365,-2.3615,-2.3614,-2.3614,-2.3613,-2.3604,-2.3605,-2.3605,0,0,0,0,0,0,0,0,0,0,0,0,0,-2.3641,-2.3641,-2.3658,-2.3658,-2.3658,-2.365,-2.365,-2.365,-2.3615,-2.3614,-2.3613,-2.3613,-2.3604,-2.3605,-2.3605,0,0,0,0,0,0,0,0,0,0,0,0,0,-2.3642,-2.3641,-2.3658,-2.364,-2.3638,-2.365,-2.365,-2.365,-2.3616,-2.3614,-2.3613,-2.3612,-2.3604,-2.3605,-2.3605,-2.3635,0,0,-2.3608,-2.3608,0,0,0,0,0,0,0,0,-2.3642,-2.3643,-2.3642,-2.3641,-2.3639,-2.3632,-2.3641,-2.3645,-2.3616,-2.3624,-2.3613,-2.3611,-2.3615,-2.3614,-2.3616,-2.3634,-2.3634,-2.3608,-2.3608,-2.3609,-2.3609,0,0,0,0,0,0,0,-2.3642,-2.3643,-2.3655,-2.3642,-2.364,-2.3631,-2.363,-2.3641,-2.3626,-2.3623,-2.3621,-2.362,-2.3613,-2.3615,-2.3615,-2.3634,-2.3608,-2.3609,-2.3609,-2.3609,-2.3673,-2.3675,0,0,0,0,0,0,-2.3645,-2.3643,-2.3655,-2.3655,-2.3638,-2.3632,-2.3631,-2.3636,-2.3626,-2.3623,-2.3621,-2.3619,-2.3614,-2.3614,-2.3615,-2.3647,-2.3609,-2.3609,-2.361,-2.3672,-2.3674,-2.3675,0,0,0,0,0,0,-2.3645,-2.3646,-2.3655,-2.3648,-2.3649,-2.3634,-2.364,-2.3636,-2.3638,-2.3625,-2.3622,-2.3626,-2.3613,-2.3614,-2.3629,-2.3646,-2.361,-2.3611,-2.3671,-2.3673,-2.3674,-2.3712,0,0,0,0,0,0,-2.3644,-2.3646,-2.3658,-2.3649,-2.3649,-2.3671,-2.3641,-2.3637,-2.3639,-2.3636,-2.3628,-2.3626,-2.3612,-2.3628,-2.363,-2.3646,-2.3611,-2.3669,-2.3672,-2.3674,-2.3709,-2.3715,-2.372,0,0,0,0,0,-2.3644,-2.3669,-2.3659,-2.366,-2.3663,-2.3672,-2.3672,-2.3657,-2.3641,-2.3652,-2.3643,-2.3626,-2.3644,-2.363,-2.3632,-2.3649,-2.3668,-2.3671,-2.3674,-2.3707,-2.3714,-2.3719,0,0,0,0,0,0,-2.3681,-2.3668,-2.3656,-2.3679,-2.3677,-2.3666,-2.368,-2.3665,-2.3667,-2.3664,-2.3644,-2.3643,-2.3661,-2.3656,-2.3642,-2.3675,-2.3653,-2.3656,-2.3677,-2.3684,-2.3689,-2.3689,-2.3612,0,0,0,0,0,-2.3692,-2.3701,-2.3688,-2.371,-2.371,-2.3695,-2.3698,-2.3686,-2.3683,-2.3682,-2.3674,-2.3672,-2.3676,-2.368,-2.3684,-2.3708,-2.3705,-2.372,-2.3726,-2.373,-2.3733,-2.3743,-2.3749,-2.3684,-2.3684,-2.3684,0,0,-2.3715,-2.3709,-2.3715,-2.3717,-2.3714,-2.3723,-2.3694,-2.3705,-2.3711,-2.3683,-2.3697,-2.3692,-2.3687,-2.3707,-2.3715,-2.3704,-2.375,-2.3733,-2.3737,-2.3737,-2.3747,-2.3753,-2.3758,-2.3686,-2.3686,-2.3685,0,0,-2.376,-2.3757,-2.3774,-2.3771,-2.3766,-2.3756,-2.376,-2.3751,-2.3746,-2.376,-2.3739,-2.3745,-2.3755,-2.3751,-2.3751,-2.3793,-2.3777,-2.3795,-2.3823,-2.3833,-2.3838,-2.3843,-2.3856,-2.3861,-2.3798,-2.3798,-2.3798,0,-2.3789,-2.3802,-2.3784,-2.3796,-2.3796,-2.3772,-2.3788,-2.3786,-2.3783,-2.3783,-2.3771,-2.378,-2.3776,-2.3793,-2.3803,-2.3804,-2.3807,-2.3796,-2.3839,-2.3843,-2.3847,-2.386,-2.3865,-2.38,-2.38,-2.38,-2.38,0,-2.3836,-2.3845,-2.3859,-2.3856,-2.3858,-2.3872,-2.3856,-2.386,-2.3848,-2.3839,-2.3852,-2.3845,-2.3846,-2.385,-2.3838,-2.3865,-2.3858,-2.3843,-2.3819,-2.3856,-2.3867,-2.3872,-2.3803,-2.3803,-2.3802,-2.3802,0,0,-2.3906,-2.3892,-2.3897,-2.3895,-2.3887,-2.3893,-2.3905,-2.3906,-2.3909,-2.3907,-2.3916,-2.3923,-2.3908,-2.3908,-2.3895,-2.3905,-2.3936,-2.3887,-2.3887,-2.3896,-2.3964,-2.3975,-2.3981,-2.3925,-2.3926,-2.3927,-2.3964,0,-2.3948,-2.3968,-2.3952,-2.3974,-2.3981,-2.3956,-2.3966,-2.3962,-2.3954,-2.3957,-2.3948,-2.3953,-2.3933,-2.3932,-2.3941,-2.3931,-2.3949,-2.3928,-2.3932,-2.3932,-2.3933,-2.3987,-2.3999,-2.4034,-2.3968,-2.3969,-2.397,0,-2.4,-2.4,-2.4023,-2.4011,-2.4014,-2.4023,-2.4021,-2.4026,-2.402,-2.4013,-2.4012,-2.3996,-2.4005,-2.3983,-2.3996,-2.3981,-2.3982,-2.3977,-2.3978,-2.3977,-2.3953,-2.3986,-2.4045,-2.405,-2.3977,-2.3976,-2.3976,0,-2.4047,-2.4052,-2.4066,-2.4065,-2.4052,-2.4059,-2.4054,-2.4047,-2.4048,-2.4047,-2.4047,-2.4047,-2.4046,-2.4046,-2.403,-2.4016,-2.4044,-2.4021,-2.4037,-2.4037,-2.4043,-2.4043,-2.4102,-2.4046,-2.4046,-2.4046,-2.4046,0,-2.4095,-2.411,-2.4086,-2.4095,-2.411,-2.4091,-2.4106,-2.4098,-2.4092,-2.4097,-2.4077,-2.4082,-2.4062,-2.4065,-2.4052,-2.4063,-2.4064,-2.4057,-2.4054,-2.4059,-2.4059,-2.4058,-2.4055,-2.4047,-2.4047,-2.4046,-2.4046,0,-2.4149,-2.4135,-2.4148,-2.4135,-2.4131,-2.4143,-2.4131,-2.4138,-2.4127,-2.4135,-2.4135,-2.4119,-2.4121,-2.4105,-2.4105,-2.4097,-2.4113,-2.4106,-2.4115,-2.4112,-2.4129,-2.4127,-2.4188,-2.4194,-2.4136,-2.4136,-2.4137,0,-2.4181,-2.4191,-2.4179,-2.4181,-2.4177,-2.4181,-2.4181,-2.4162,-2.4164,-2.4156,-2.4164,-2.4164,-2.4164,-2.4169,-2.4156,-2.4155,-2.4147,-2.4169,-2.4147,-2.4151,-2.4146,-2.4145,-2.4145,-2.4173,-2.4174,-2.4174,-2.4175,0,-2.4237,-2.4229,-2.423,-2.4229,-2.423,-2.4228,-2.4224,-2.4227,-2.4207,-2.4209,-2.4211,-2.421,-2.4209,-2.421,-2.4206,-2.42,-2.4184,-2.4182,-2.4185,-2.419,-2.4194,-2.419,-2.4126,-2.418,-2.418,-2.4179,-2.4179,-2.4179,-2.428,-2.4287,-2.4279,-2.4281,-2.4276,-2.4273,-2.4278,-2.4267,-2.4269,-2.4266,-2.4255,-2.4259,-2.425,-2.4244,-2.4239,-2.4241,-2.4231,-2.4237,-2.4238,-2.4239,-2.4241,-2.4195,-2.4241,-2.4241,-2.4241,-2.424,-2.424,0,-2.4334,-2.4327,-2.4329,-2.4324,-2.4325,-2.4309,-2.4304,-2.4306,-2.4309,-2.4303,-2.4303,-2.4304,-2.4304,-2.4291,-2.4289,-2.4293,-2.4285,-2.4293,-2.4292,-2.429,-2.4252,-2.4248,-2.4299,-2.4299,-2.4299,-2.4299,-2.4299,-2.4299,-2.4362,-2.4373,-2.4364,-2.4371,-2.4364,-2.4367,-2.4365,-2.4362,-2.4356,-2.4359,-2.4358,-2.435,-2.4341,-2.4337,-2.4336,-2.4332,-2.4332,-2.4342,-2.4335,-2.4299,-2.4293,-2.4288,-2.4284,-2.4342,-2.4343,-2.4374,-2.4374,-2.4374]}]]